Location: Estherville
(43.4020°N, 94.8330°W)
Time: 15:30:41
(UTC-06:00)

OTV 5 (USA 277) - Visible Passes

Search period start: 19 November 2018 00:00
Search period end: 29 November 2018 00:00
Orbit: 339 x 348 km, 54.5° (Epoch: 14 November)

Date Brightness Start Highest point End Pass type
(mag) Time Alt. Az. Time Alt. Az. Time Alt. Az.
23 Nov ? 06:21:16 10° SSE 06:22:27 12° SE 06:23:38 10° ESE visible
24 Nov ? 06:43:01 10° SSW 06:45:41 37° SE 06:48:22 10° ENE visible
25 Nov ? 05:33:38 10° SSE 05:34:37 11° SE 05:35:36 10° ESE visible
26 Nov ? 05:55:10 10° SSW 05:57:49 35° SE 06:00:30 10° ENE visible
27 Nov ? 04:47:27 10° ESE 04:47:27 10° ESE 04:47:29 10° ESE visible
27 Nov ? 06:18:56 14° WSW 06:21:14 66° NW 06:24:06 10° NE visible
28 Nov ? 05:11:07 23° E 05:11:07 23° E 05:12:34 10° ENE visible
28 Nov ? 06:42:35 11° W 06:44:51 25° NNW 06:47:20 10° NNE visible
